Anita, PA

11:33 PM EST on February 07, 2016 (GMT -0500)
Du Bois-Jefferson County

Weather History for KDUJ - February, 2012

Change the Weather History Date:

Monday, February 13, 2012

  Actual Average Record
Temperature  
Mean Temperature 24 °F 26 °F  
Max Temperature 31 °F 34 °F 61 °F (1990)
Min Temperature 17 °F 18 °F -3 °F (1967)
Degree Days  
Heating Degree Days 41 39  
Month to date heating degree days 473 520  
Since 1 July heating degree days 3495 4464  
Cooling Degree Days 0 0  
Month to date cooling degree days 0 0  
Year to date cooling degree days 0 0  
Moisture  
Dew Point 14 °F    
Average Humidity 70    
Maximum Humidity 92    
Minimum Humidity 47    
Precipitation  
Precipitation 0.00 in 0.08 in 1.94 in (1971)
Month to date precipitation 0.29 1.05  
Sea Level Pressure  
Sea Level Pressure 30.09 in    
Wind  
Wind Speed 13 mph (WSW)    
Max Wind Speed 23 mph    
Max Gust Speed 26 mph    
Visibility 10 miles    
Events      
T = Trace of Precipitation, MM = Missing Value Source: NWS Daily Summary

Daily Weather History Graph

Daily Weather History Graph

Search for Another Location

Airport or City:

Trip Planner

Search our weather history database for the weather conditions in past years. The results will help you decide how hot, cold, wet, or windy it might be!

Date:

Astronomy

Feb. 13, 2012 Rise Set
Actual Time 7:13 AM EST 5:46 PM EST
Civil Twilight 6:45 AM EST 6:15 PM EST
Nautical Twilight 6:12 AM EST 6:47 PM EST
Astronomical Twilight 5:40 AM EST 7:19 PM EST
Moon No Moon Rise 10:06 AM EST (2/13)
Length of Visible Light 11h 30m
Length of Day
10h 33m
Waning Gibbous, 62% of the Moon is Illuminated
Feb 13
Waning Gibbous
Feb 14
Last Quarter
Feb 21
New
Feb 29
First Quarter
Mar 8
Full

Hourly Weather History & Observations

Time (EST) Temp. Windchill Dew Point Humidity Pressure Visibility Wind Dir Wind Speed Gust Speed Precip Events Conditions
12:56 AM 19.9 °F 6.7 °F 15.1 °F 81% 30.07 in 10.0 mi West 13.8 mph 23.0 mph N/A   Overcast
1:56 AM 19.0 °F 4.5 °F 14.0 °F 81% 30.08 in 10.0 mi WSW 16.1 mph - N/A   Overcast
2:56 AM 18.0 °F 5.4 °F 14.0 °F 84% 30.09 in 10.0 mi West 11.5 mph - N/A   Overcast
3:56 AM 18.0 °F 5.4 °F 14.0 °F 84% 30.10 in 10.0 mi West 11.5 mph - N/A   Overcast
4:56 AM 19.0 °F 7.5 °F 15.1 °F 85% 30.10 in 10.0 mi WSW 10.4 mph - N/A   Overcast
5:56 AM 18.0 °F 3.6 °F 15.1 °F 88% 30.10 in 10.0 mi WSW 15.0 mph - N/A   Overcast
6:56 AM 18.0 °F 6.1 °F 12.9 °F 81% 30.12 in 10.0 mi WSW 10.4 mph - N/A   Overcast
7:56 AM 17.1 °F 4.3 °F 12.0 °F 81% 30.13 in 10.0 mi SW 11.5 mph - N/A   Overcast
8:56 AM 17.1 °F 3.6 °F 12.0 °F 81% 30.14 in 10.0 mi WSW 12.7 mph - N/A   Overcast
9:56 AM 19.0 °F 6.1 °F 12.9 °F 77% 30.14 in 10.0 mi West 12.7 mph - N/A   Overcast
10:31 AM 19.4 °F 5.0 °F 14.0 °F 80% 30.05 in 10.0 mi WSW 16.1 mph - N/A   Partly Cloudy
10:56 AM 21.9 °F 8.2 °F 15.1 °F 75% 30.13 in 10.0 mi WSW 16.1 mph - N/A   Partly Cloudy
11:56 AM 24.1 °F 11.5 °F 16.0 °F 71% 30.11 in 10.0 mi WSW 15.0 mph 20.7 mph N/A   Clear
12:56 PM 28.0 °F 15.7 °F 15.1 °F 58% 30.09 in 10.0 mi WSW 17.3 mph - N/A   Clear
1:56 PM 28.9 °F 16.5 °F 16.0 °F 58% 30.07 in 10.0 mi WSW 18.4 mph - N/A   Clear
2:56 PM 30.0 °F 16.9 °F 15.1 °F 54% 30.08 in 10.0 mi WSW 21.9 mph 26.5 mph N/A   Clear
3:56 PM 30.9 °F 21.7 °F 12.9 °F 47% 30.07 in 10.0 mi WSW 11.5 mph - N/A   Clear
4:56 PM 28.9 °F 18.2 °F 12.0 °F 49% 30.06 in 10.0 mi WSW 13.8 mph - N/A   Clear
5:56 PM 28.0 °F 20.0 °F 12.0 °F 51% 30.06 in 10.0 mi WSW 8.1 mph - N/A   Clear
6:56 PM 28.0 °F 18.6 °F 14.0 °F 56% 30.06 in 10.0 mi WSW 10.4 mph - N/A   Clear
7:56 PM 28.0 °F 19.3 °F 14.0 °F 56% 30.07 in 10.0 mi WSW 9.2 mph - N/A   Overcast
8:56 PM 27.0 °F 19.5 °F 12.9 °F 56% 30.06 in 10.0 mi SW 6.9 mph - N/A   Scattered Clouds
9:56 PM 26.1 °F 16.8 °F 12.0 °F 55% 30.06 in 10.0 mi SW 9.2 mph - N/A   Mostly Cloudy
10:56 PM 26.1 °F 16.2 °F 12.0 °F 55% 30.06 in 10.0 mi WSW 10.4 mph - N/A   Mostly Cloudy
11:56 PM 27.0 °F 17.3 °F 12.9 °F 56% 30.06 in 10.0 mi SW 10.4 mph - N/A   Overcast